This demonstration page uses our WeatherBlox Daily Observations layout. Learn more.

Left ArrowRight Arrow

39.29038, -76.61219

Hourly Observations for January 20, 2017

Temp ( °F °C ) Dew Point ( °F °C ) Humidity (%) Winds ( mph kmh ) Pressure ( in mb ) Visibility ( mi km ) Precip ( " mm )
12:54 am 00:54 undefined 41 5 34 1.1 76 76 undefined N/A 30.01 1016 N/A 0.00 0.00
1:54 am 01:54 undefined 41 5 34 1.1 76 76 undefined N/A 30.02 1017 N/A 0.00 0.00
2:54 am 02:54 undefined 41 5 34 1.1 76 76 undefined N/A 30.02 1017 N/A 0.00 0.00
3:54 am 03:54 undefined 40 4.4 33 0.6 77 77 undefined N/A 30.00 1016 N/A 0.00 0.00
4:54 am 04:54 undefined 39 3.9 33 0.6 79 79 undefined N/A 29.99 1016 N/A 0.00 0.00
5:54 am 05:54 undefined 39 3.9 33 0.6 79 79 undefined N/A 29.99 1016 N/A 0.00 0.00
6:54 am 06:54 undefined 39 3.9 33 0.6 79 79 undefined N/A 29.99 1016 N/A 0.00 0.00
7:54 am 07:54 undefined 40 4.4 34 1.1 79 79 undefined N/A 29.98 1015 N/A 0.00 0.00
8:54 am 08:54 undefined 41 5 34 1.1 76 76 undefined N/A 29.98 1015 N/A 0.00 0.00
9:54 am 09:54 undefined 41 5 36 2.2 82 82 undefined N/A 29.98 1015 N/A 0.02 0.51
10:54 am 10:54 undefined 42 5.6 37 2.8 82 82 undefined N/A 29.97 1015 N/A 0.00 0.00
11:54 am 11:54 undefined 42 5.6 37 2.8 82 82 undefined N/A 29.95 1014 N/A 0.00 0.00
12:54 pm 12:54 undefined 44 6.7 38 3.3 79 79 undefined N/A 29.93 1014 N/A 0.00 0.00
1:54 pm 13:54 undefined 43 6.1 38 3.3 82 82 undefined N/A 29.91 1013 N/A 0.00 0.00
2:54 pm 14:54 undefined 44 6.7 39 3.9 83 83 undefined N/A 29.89 1012 N/A 0.01 0.25
3:54 pm 15:54 undefined 44 6.7 39 3.9 83 83 undefined N/A 29.90 1012 N/A 0.00 0.00
4:54 pm 16:54 undefined 44 6.7 40 4.4 85 85 undefined N/A 29.89 1012 N/A 0.00 0.00
5:54 pm 17:54 undefined 45 7.2 40 4.4 83 83 undefined N/A 29.91 1013 N/A 0.00 0.00
6:54 pm 18:54 undefined 45 7.2 40 4.4 83 83 undefined N/A 29.91 1013 N/A 0.00 0.00
7:54 pm 19:54 undefined 45 7.2 41 5 86 86 undefined N/A 29.91 1013 N/A 0.00 0.00
8:54 pm 20:54 undefined 45 7.2 41 5 86 86 undefined N/A 29.91 1013 N/A 0.00 0.00
9:54 pm 21:54 undefined 45 7.2 41 5 86 86 undefined N/A 29.93 1013 N/A 0.00 0.00
10:54 pm 22:54 undefined 45 7.2 42 5.6 90 90 undefined N/A 29.91 1013 N/A 0.00 0.00
11:54 pm 23:54 undefined 45 7.2 42 5.6 90 90 undefined N/A 29.92 1013 N/A 0.00 0.00

Powered by AerisWeather